CW1840 Weather Reports


time (UTC)temp
F
wind
direction
speed
knots
gust
knots
rain 1hr
in
rain 24hr
in
rain mn
in
humidity
%
barometer
mb
20260502123027 66 84 0.0 0.0 0.00 0.00 0.00 33 1012.8
20260502110026 68 19 0.0 0.0 0.00 0.00 0.00 31 1012.4
20260502070027 72 57 0.9 5.2 0.00 0.00 0.00 25 1011.0
20260502060026 73 15 0.0 0.0 0.00 0.00 0.00 26 1010.6
20260502050026 76 11 0.0 0.0 0.00 0.00 0.00 23 1010.3
20260502030026 82 74 3.5 7.0 0.00 0.00 0.00 20 1009.1
20260502020026 85 116 6.1 10.4 0.00 0.00 0.00 18 1008.6
20260502013026 86 119 7.0 11.3 0.00 0.00 0.00 17 1008.6
20260502010027 88 182 6.1 12.2 0.00 0.00 0.00 18 1008.7
20260502003027 89 154 7.0 12.2 0.00 0.00 0.00 18 1008.7
20260501233026 90 113 7.0 15.6 0.00 0.00 0.00 18 1009.0
20260501230026 91 96 8.7 16.5 0.00 0.00 0.00 17 1009.3
20260501213026 91 89 5.2 15.6 0.00 0.00 0.00 20 1010.7
20260501210026 91 54 7.0 17.4 0.00 0.00 0.00 18 1011.0
20260501200027 89 108 2.6 7.8 0.00 0.00 0.00 19 1011.7
20260501193026 89 249 3.5 13.0 0.00 0.00 0.00 20 1012.1
20260501190027 88 78 4.3 11.3 0.00 0.00 0.00 22 1012.5
20260501183027 87 112 4.3 8.7 0.00 0.00 0.00 22 1012.9
20260501170027 86 119 4.3 10.4 0.00 0.00 0.00 22 1013.4
20260501163027 83 130 5.2 12.2 0.00 0.00 0.00 25 1013.4
20260501153027 78 204 1.7 5.2 0.00 0.00 0.00 30 1013.0